Wind_Speed
22 22 22 22 22 22 23 24 24 24 25 24 24 24 26 27 28 28 29 31 33 35 36 38 38 39 40 42 44 46 47 49 51 52 53 53 53 53 54 54 55 55 55 55
22 22 22 22 21 21 22 23 24 25 25 25 26 26 26 27 28 29 30 30 32 33 35 37 38 39 40 42 44 45 47 49 50 50 51 52 52 52 54 54 54 55 56 56
23 23 23 22 22 22 22 23 23 24 25 26 26 27 27 28 29 30 31 31 32 33 34 35 37 38 40 42 44 45 46 48 50 51 51 52 53 53 54 54 54 55 55 56
24 24 23 22 22 22 23 23 23 24 24 25 26 26 27 29 29 30 31 32 32 33 33 34 35 37 39 42 44 45 46 47 48 50 52 53 53 53 53 54 55 55 55 56
24 24 24 22 22 23 23 22 22 23 24 24 25 26 27 28 28 29 29 30 31 32 33 33 34 35 37 39 41 43 45 46 47 48 50 52 53 54 54 54 55 55 56 56
25 25 25 24 23 23 23 22 23 24 24 25 26 26 27 28 28 28 29 30 31 33 33 33 34 34 35 37 38 40 42 44 45 46 48 49 50 52 52 53 53 55 55 56
25 25 25 24 24 24 23 24 23 24 25 25 26 26 26 27 28 28 29 30 30 32 33 33 34 35 35 36 37 38 40 42 43 44 46 47 48 50 50 51 51 53 54 54
26 26 26 26 25 24 24 24 25 25 25 25 25 25 25 25 26 27 27 28 29 30 31 31 32 33 33 34 36 37 39 40 42 44 45 46 47 48 49 50 50 51 52 53
27 26 26 26 25 25 25 25 26 26 26 26 26 26 26 25 25 25 25 26 26 27 29 30 30 31 32 33 34 35 37 39 41 42 44 45 46 47 47 49 50 50 51 53
28 27 27 26 26 27 27 27 26 27 27 27 27 27 26 26 25 25 25 24 25 25 26 27 28 29 29 30 32 33 34 36 38 40 42 44 45 46 46 48 49 49 50 51
28 27 27 27 27 27 27 27 27 28 28 28 27 27 27 26 26 25 25 24 25 25 25 25 26 27 28 29 29 30 32 33 35 36 38 41 42 44 46 47 49 50 50 51
28 28 28 27 27 26 26 27 27 28 28 28 28 27 27 26 26 25 25 24 24 25 25 25 25 26 27 28 29 30 30 31 33 34 35 37 39 41 43 45 47 49 50 51
28 28 28 27 27 27 27 27 28 28 28 28 27 27 27 26 25 25 24 24 24 24 24 25 25 26 26 27 28 29 29 29 30 31 32 34 36 38 39 41 43 45 47 49
29 28 28 27 27 27 28 28 28 28 28 27 27 26 26 25 25 25 24 24 24 24 24 24 24 25 25 26 26 27 27 27 28 29 30 31 33 35 36 37 38 40 43 44
28 28 27 27 27 28 28 28 28 27 27 26 26 25 25 25 24 24 25 25 25 25 25 24 24 24 24 25 25 25 26 26 26 27 28 30 30 32 33 34 35 36 38 39
28 28 27 26 27 27 27 27 27 26 26 26 26 26 25 25 25 25 25 26 25 25 25 24 24 24 24 24 24 25 25 25 25 25 26 27 28 29 30 31 32 34 35 36
28 27 27 27 27 27 27 27 26 26 26 26 26 25 25 25 25 25 25 25 25 25 24 24 23 23 23 23 23 23 23 24 24 25 25 25 26 26 27 29 30 31 33 34
28 28 28 27 27 28 28 27 26 25 25 25 25 25 25 25 25 25 24 24 24 24 23 23 23 22 22 21 21 21 22 23 23 24 24 24 25 25 25 26 28 29 31 32
29 28 28 28 28 28 28 27 26 25 25 25 25 25 25 25 25 25 25 24 24 24 24 23 23 22 21 21 21 21 21 21 22 23 23 23 23 23 24 24 25 26 28 29
29 29 29 28 28 28 28 27 27 26 26 26 26 25 25 25 25 25 24 24 25 24 24 24 23 23 22 22 22 22 22 22 22 22 22 22 22 23 23 23 23 24 25 26
29 30 30 30 30 29 29 28 27 26 26 26 26 26 26 26 25 25 25 25 24 24 24 24 23 23 22 22 22 22 22 22 22 22 22 22 22 22 23 23 23 24 25 26
30 30 30 31 31 30 29 28 28 27 27 27 28 27 27 27 27 26 26 25 24 24 23 23 23 22 22 22 22 23 23 23 22 22 22 21 21 21 22 22 22 23 24 25
31 31 31 32 32 31 30 29 28 28 28 28 28 28 28 28 27 26 25 25 24 24 24 23 23 23 23 23 23 23 22 22 22 22 22 22 22 22 23 23 23 23 24 25
32 32 32 32 32 31 30 30 29 29 29 29 29 28 28 27 26 26 25 25 24 24 24 23 23 23 23 23 23 22 22 22 22 22 22 22 23 23 23 24 24 24 24 25
33 33 33 32 32 31 31 30 30 29 29 29 29 28 28 27 27 26 26 25 24 24 23 23 23 23 23 22 22 22 22 22 22 22 23 23 24 24 23 24 24 23 24 24
32 32 32 32 31 31 31 30 29 28 28 28 28 28 27 27 26 25 25 24 24 23 23 23 23 23 22 22 21 21 22 22 23 23 23 24 23 23 23 23 23 24 24 24
32 32 31 31 31 30 29 28 27 27 27 26 26 26 26 25 25 24 24 23 23 22 22 22 22 21 21 20 20 20 20 21 21 21 21 22 22 22 23 23 23 23 23 23
Wind_Direction
309 305 302 300 296 292 288 287 287 286 283 279 276 276 274 273 271 270 267 264 261 258 255 255 255 254 253 252 250 247 245 245 244 244 244 244 245 245 245 245 245 244 244 244
312 307 304 302 297 294 292 290 289 288 285 281 279 279 277 275 273 271 269 267 264 261 259 257 256 255 254 252 251 249 247 245 245 245 245 245 245 245 245 245 244 243 244 244
314 312 307 303 302 298 294 290 290 290 289 284 281 281 279 277 276 275 272 270 268 264 261 260 258 257 256 254 252 251 249 248 248 247 246 245 246 246 246 245 245 245 245 244
315 312 310 308 303 300 297 293 291 291 291 289 287 286 283 279 278 276 273 271 268 265 264 265 262 259 257 256 254 252 251 250 250 250 248 247 247 248 247 246 245 245 245 245
315 312 310 308 305 302 301 299 294 295 294 292 291 290 288 284 281 279 276 273 269 267 267 267 265 261 258 257 256 254 251 251 251 251 250 249 248 248 248 247 246 245 245 246
317 313 312 311 307 304 302 300 298 296 296 295 293 291 290 287 284 282 279 276 272 269 268 268 267 264 261 259 257 255 253 252 251 251 251 250 249 249 248 248 248 246 245 246
318 314 313 313 310 307 303 303 302 299 298 297 296 294 292 290 287 284 282 279 276 273 270 269 268 266 263 261 258 256 254 252 253 252 252 251 250 249 249 249 248 247 246 246
319 316 313 311 308 308 306 304 302 302 302 302 300 298 297 295 291 289 286 282 278 275 273 271 269 266 264 261 259 257 256 254 254 254 253 252 251 250 250 249 248 248 247 247
317 317 315 312 308 306 306 304 302 302 302 301 301 300 299 298 296 294 291 286 282 278 276 274 271 269 266 263 261 259 258 257 256 255 254 253 252 251 251 250 249 248 248 248
314 315 313 311 308 306 305 304 303 301 301 301 300 299 298 298 298 297 294 290 285 282 278 275 273 271 269 266 264 262 260 259 257 255 254 253 252 251 251 251 249 249 249 249
313 313 312 311 309 307 305 305 303 302 301 301 300 299 298 297 298 298 296 293 288 285 281 278 275 273 272 269 266 265 263 261 259 257 254 252 253 253 252 252 251 249 249 249
314 313 312 311 310 308 306 305 305 305 303 301 300 299 298 296 296 296 295 293 290 287 284 281 278 276 274 272 270 268 266 263 261 259 257 254 254 254 253 253 252 252 251 250
314 313 312 311 310 309 306 305 305 305 304 303 301 299 297 296 296 296 295 294 292 290 286 283 281 279 275 274 272 271 269 266 262 260 259 258 256 255 254 253 252 252 252 251
315 314 312 311 310 309 308 306 305 304 304 304 303 300 298 296 295 294 293 293 293 293 291 287 284 281 278 276 275 273 271 269 265 263 262 261 259 257 256 254 252 251 251 250
317 315 314 312 310 310 309 307 305 305 304 304 303 301 299 298 296 294 293 292 292 292 292 290 286 283 281 279 277 274 272 270 268 266 265 264 262 259 257 254 252 251 250 249
318 316 316 315 314 313 312 310 307 305 304 303 302 301 300 298 297 295 294 293 291 290 290 290 287 285 282 280 279 276 272 270 269 268 267 266 264 261 259 256 253 252 250 249
319 318 317 317 317 317 316 313 310 307 305 304 303 301 300 299 298 297 295 293 291 290 290 290 289 286 284 281 278 274 272 270 269 269 269 268 265 262 259 257 254 252 250 248
319 318 318 317 317 317 316 315 313 310 308 306 305 304 302 300 299 297 295 294 292 291 290 289 289 287 284 282 278 276 274 272 270 270 269 268 267 265 262 259 256 254 251 249
318 318 317 316 316 316 315 315 313 311 310 309 308 306 304 302 299 297 295 294 292 291 289 288 288 287 285 281 278 276 275 274 272 271 270 269 268 266 264 260 258 256 253 251
317 317 317 316 315 315 315 313 313 312 311 310 310 308 306 304 301 298 296 294 293 291 290 288 287 285 283 281 278 276 274 274 273 271 269 268 268 267 264 261 260 257 254 252
317 316 316 316 316 315 314 313 312 310 310 309 309 308 307 305 302 299 296 295 293 292 290 289 287 285 282 280 278 276 274 273 272 271 270 269 268 267 266 264 261 259 256 253
317 317 316 316 315 315 313 312 311 310 309 308 308 307 306 304 302 299 297 294 293 291 290 288 286 284 282 280 279 277 275 273 270 269 269 268 267 266 265 264 262 260 258 256
317 316 316 315 314 314 313 311 310 309 308 308 307 307 306 304 302 299 297 295 293 291 290 288 286 284 282 281 279 278 276 274 271 269 268 267 267 265 264 264 263 262 261 259
315 315 315 314 313 313 313 311 309 308 307 307 307 307 306 304 302 299 296 295 292 291 289 288 286 284 283 281 279 277 275 274 272 270 269 269 269 267 266 266 265 264 262 261
315 314 314 313 313 313 313 312 310 309 308 307 307 306 305 303 302 299 297 294 292 289 288 287 287 285 284 283 280 277 275 274 273 272 271 271 271 270 269 269 266 265 264 263
316 316 315 315 315 314 314 312 311 310 309 308 307 307 306 304 301 299 296 294 291 289 288 287 286 284 283 283 281 279 278 277 275 273 271 270 270 270 270 269 267 265 264 263
317 317 317 317 316 316 315 313 312 311 311 310 310 309 308 307 304 301 298 294 292 290 289 288 287 286 284 283 282 280 279 277 276 275 273 272 271 270 269 269 267 265 264 263
Height
5575 5571 5568 5565 5563 5561 5558 5556 5554 5553 5551 5550 5547 5546 5545 5543 5542 5541 5540 5539 5538 5538 5538 5539 5540 5541 5541 5543 5544 5547 5550 5553 5557 5561 5564 5568 5572 5576 5580 5584 5587 5592 5596 5600
5570 5566 5563 5560 5558 5555 5552 5550 5548 5546 5545 5543 5540 5538 5537 5535 5534 5533 5532 5531 5529 5529 5529 5529 5530 5530 5531 5532 5534 5536 5538 5541 5545 5548 5551 5555 5558 5562 5566 5569 5573 5577 5582 5586
5565 5561 5558 5555 5553 5549 5546 5544 5541 5539 5538 5535 5533 5531 5529 5527 5526 5524 5523 5522 5521 5520 5519 5520 5519 5520 5520 5521 5523 5525 5527 5530 5533 5536 5539 5542 5545 5548 5552 5555 5560 5564 5567 5572
5559 5557 5553 5552 5547 5543 5540 5538 5535 5533 5530 5528 5526 5524 5521 5519 5517 5515 5514 5513 5511 5510 5510 5510 5509 5509 5510 5510 5512 5513 5516 5518 5520 5523 5526 5529 5532 5535 5538 5542 5546 5550 5554 5558
5554 5550 5547 5545 5541 5537 5534 5532 5529 5526 5524 5521 5519 5517 5514 5511 5509 5506 5505 5503 5502 5501 5500 5500 5499 5499 5499 5500 5500 5502 5504 5506 5508 5510 5513 5516 5519 5521 5524 5528 5532 5536 5540 5544
5548 5544 5541 5540 5535 5530 5528 5526 5523 5520 5517 5514 5512 5510 5508 5503 5501 5498 5496 5494 5492 5491 5490 5489 5489 5488 5488 5488 5489 5490 5492 5493 5495 5497 5500 5502 5505 5508 5511 5514 5517 5521 5525 5530
5542 5538 5535 5532 5528 5525 5523 5520 5516 5513 5510 5508 5504 5502 5499 5495 5493 5490 5487 5485 5483 5481 5480 5479 5478 5478 5478 5478 5478 5479 5480 5481 5483 5485 5487 5489 5492 5494 5497 5500 5504 5508 5512 5516
5537 5533 5532 5525 5522 5519 5516 5512 5509 5506 5503 5500 5497 5494 5490 5487 5484 5481 5479 5476 5474 5472 5470 5469 5468 5467 5467 5467 5468 5468 5469 5470 5471 5473 5475 5477 5479 5481 5484 5487 5490 5493 5497 5502
5532 5530 5523 5519 5515 5512 5509 5505 5502 5499 5496 5493 5490 5486 5483 5480 5477 5473 5470 5468 5465 5463 5462 5460 5458 5458 5457 5457 5457 5457 5457 5458 5459 5461 5462 5464 5466 5468 5471 5473 5477 5480 5483 5488
5525 5522 5517 5512 5508 5505 5501 5498 5495 5491 5488 5485 5482 5479 5476 5472 5469 5466 5462 5460 5457 5455 5453 5451 5449 5448 5447 5447 5446 5446 5446 5447 5447 5448 5450 5451 5453 5456 5458 5461 5463 5466 5470 5473
5518 5515 5510 5506 5501 5498 5494 5490 5487 5484 5480 5477 5474 5471 5468 5465 5461 5458 5455 5452 5449 5446 5444 5442 5440 5439 5438 5437 5436 5436 5436 5436 5436 5436 5437 5439 5441 5443 5445 5447 5450 5453 5456 5459
5512 5508 5503 5499 5495 5491 5487 5483 5480 5476 5472 5469 5466 5463 5460 5457 5453 5450 5447 5444 5441 5438 5436 5434 5432 5430 5429 5427 5426 5426 5426 5425 5425 5425 5426 5427 5428 5430 5431 5434 5436 5438 5441 5444
5505 5500 5496 5492 5488 5484 5480 5476 5472 5468 5465 5461 5458 5455 5452 5449 5446 5443 5439 5436 5434 5431 5428 5425 5423 5421 5420 5418 5417 5416 5416 5415 5415 5415 5416 5416 5417 5418 5419 5421 5423 5425 5427 5430
5497 5493 5489 5484 5480 5476 5472 5468 5465 5461 5457 5453 5450 5447 5444 5441 5438 5435 5432 5429 5426 5423 5420 5418 5415 5413 5411 5410 5408 5407 5407 5406 5406 5406 5406 5406 5406 5407 5407 5409 5411 5412 5414 5416
5491 5486 5482 5477 5473 5469 5465 5461 5457 5453 5449 5446 5442 5439 5436 5433 5430 5427 5424 5421 5419 5416 5413 5410 5407 5405 5403 5401 5400 5399 5398 5397 5397 5396 5396 5396 5396 5396 5397 5398 5399 5401 5402 5404
5484 5479 5475 5470 5466 5462 5457 5453 5449 5445 5442 5438 5435 5432 5429 5425 5422 5419 5416 5413 5411 5408 5405 5402 5400 5397 5395 5394 5392 5391 5390 5389 5388 5388 5387 5387 5386 5386 5387 5387 5388 5390 5391 5393
5477 5472 5468 5464 5459 5455 5450 5446 5442 5438 5434 5431 5427 5424 5421 5418 5415 5412 5409 5406 5403 5400 5398 5395 5392 5390 5388 5386 5384 5383 5382 5381 5380 5380 5379 5379 5378 5378 5378 5378 5379 5380 5381 5383
5470 5465 5461 5457 5452 5448 5443 5439 5435 5431 5427 5424 5420 5417 5413 5410 5407 5404 5401 5398 5395 5393 5390 5388 5385 5383 5381 5379 5377 5376 5375 5374 5373 5372 5372 5371 5370 5370 5370 5370 5370 5371 5372 5373
5462 5458 5454 5450 5445 5441 5436 5432 5428 5424 5420 5416 5413 5409 5406 5402 5399 5396 5393 5391 5388 5385 5383 5380 5378 5375 5373 5372 5370 5369 5368 5367 5366 5365 5364 5363 5363 5362 5362 5362 5362 5362 5363 5364
5455 5451 5447 5442 5438 5434 5429 5425 5420 5417 5413 5409 5405 5402 5398 5395 5392 5389 5386 5383 5380 5377 5375 5372 5370 5368 5366 5365 5363 5362 5361 5360 5359 5358 5357 5356 5356 5355 5355 5355 5355 5355 5356 5357
5448 5443 5439 5435 5430 5426 5421 5417 5413 5409 5405 5402 5398 5394 5391 5387 5384 5381 5378 5375 5372 5369 5367 5365 5363 5361 5359 5357 5356 5355 5354 5353 5352 5351 5350 5350 5349 5349 5348 5348 5348 5348 5349 5350
5440 5435 5431 5426 5422 5418 5413 5409 5405 5401 5398 5394 5390 5386 5383 5379 5376 5373 5370 5367 5364 5361 5359 5357 5355 5353 5351 5350 5348 5347 5346 5345 5344 5344 5343 5343 5342 5342 5342 5341 5341 5341 5342 5343
5432 5427 5423 5418 5414 5409 5405 5401 5397 5393 5390 5386 5382 5378 5374 5371 5367 5364 5362 5359 5356 5354 5351 5349 5347 5345 5343 5342 5341 5340 5338 5338 5337 5336 5336 5336 5335 5335 5335 5334 5334 5334 5334 5335
5424 5419 5414 5410 5405 5400 5396 5392 5388 5384 5381 5377 5373 5370 5366 5362 5359 5356 5353 5350 5348 5345 5343 5341 5339 5337 5336 5334 5333 5332 5331 5330 5330 5329 5329 5328 5328 5328 5327 5327 5327 5327 5327 5327
5415 5411 5406 5401 5396 5392 5387 5383 5379 5375 5372 5368 5365 5361 5357 5354 5351 5347 5345 5342 5340 5337 5335 5333 5331 5330 5328 5326 5325 5324 5323 5323 5322 5322 5321 5321 5320 5320 5320 5319 5319 5319 5319 5319
5407 5402 5397 5393 5388 5383 5379 5375 5371 5367 5363 5360 5356 5352 5349 5345 5342 5339 5336 5334 5331 5329 5327 5326 5324 5322 5320 5319 5318 5317 5316 5315 5315 5314 5314 5313 5313 5312 5312 5311 5311 5311 5311 5311
5400 5394 5390 5385 5380 5375 5371 5367 5363 5359 5355 5352 5348 5344 5341 5337 5334 5331 5328 5326 5324 5322 5320 5318 5316 5315 5313 5312 5311 5310 5309 5308 5307 5306 5306 5305 5305 5305 5304 5304 5303 5303 5303 5303